GP1970 Weather Reports


time (UTC)temp
C
wind
direction
speed
KPH
gust
KPH
rain 1hr
cm
rain 24hr
cm
rain mn
cm
humidity
%
barometer
mb
20260505211532 21 309 20.9 30.6 0.00 0.97 0.97 67 995.8
20260505210537 22 228 17.7 24.1 0.03 0.97 0.97 67 996.0
20260505205541 22 237 17.7 33.8 0.03 0.97 0.97 67 995.4
20260505204524 22 248 20.9 32.2 0.03 0.97 0.97 68 995.9
20260505203528 22 259 20.9 35.4 0.03 0.97 0.97 70 995.4
20260505202525 22 206 20.9 32.2 0.03 0.97 0.97 71 995.2
20260505201517 22 209 16.1 25.7 0.03 0.97 0.97 73 995.7
20260505200521 22 214 16.1 24.1 0.00 0.94 0.94 76 995.8
20260505195519 21 219 12.9 20.9 0.00 0.94 0.94 78 996.0
20260505194516 20 205 11.3 24.1 0.00 0.94 0.94 80 996.5
20260505193532 20 223 9.7 16.1 0.00 0.94 0.94 81 996.5
20260505192517 21 219 9.7 17.7 0.00 0.94 0.94 82 996.5
20260505191521 20 215 9.7 16.1 0.00 0.94 0.94 83 996.5
20260505190545 19 188 6.4 11.3 0.00 0.94 0.94 86 996.5
20260505185529 17 170 6.4 9.7 0.00 0.94 0.94 89 997.1
20260505184532 17 288 1.6 3.2 0.03 0.94 0.94 90 997.1
20260505183518 16 124 0.0 3.2 0.03 0.94 0.94 91 997.2
20260505182522 15 135 0.0 3.2 0.10 0.94 0.94 91 997.4
20260505181525 15 123 3.2 6.4 0.23 0.94 0.94 91 997.5
20260505180529 15 148 0.0 3.2 0.25 0.94 0.94 91 997.9
20260505175533 14 145 3.2 6.4 0.25 0.94 0.94 90 998.2
20260505174538 15 227 3.2 4.8 0.23 0.91 0.91 88 997.9
20260505173522 15 259 3.2 6.4 0.23 0.91 0.91 87 997.8
20260505172525 15 260 4.8 8.0 0.28 0.84 0.84 86 997.7
20260505171529 15 297 4.8 8.0 0.53 0.71 0.71 84 997.5
20260505170532 15 282 4.8 6.4 0.51 0.69 0.69 83 997.4
20260505165518 16 307 4.8 4.8 0.51 0.69 0.69 82 997.6
20260505164522 16 261 4.8 8.0 0.51 0.69 0.69 80 998.1
20260505163525 16 241 6.4 9.7 0.51 0.69 0.69 78 998.1
20260505162529 17 237 8.0 14.5 0.38 0.56 0.56 73 998.2
20260505161527 17 189 8.0 11.3 0.00 0.18 0.18 73 998.0
20260505160518 17 186 4.8 11.3 0.00 0.18 0.18 73 998.3
20260505152515 18 226 12.9 20.9 0.00 0.23 0.18 71 998.2
20260505151518 19 168 14.5 20.9 0.00 0.28 0.18 70 998.7
20260505150542 -17 0.0 0.0 0.00 0.30 0.18 998.3
20260505140606 17 62 4.8 8.0 0.00 0.66 0.18 72 998.7
20260505124519 12 72 3.2 6.4 0.00 0.84 0.18 83 999.6
20260505123523 11 86 6.4 9.7 0.00 0.84 0.18 84 999.4
20260505122526 11 91 4.8 8.0 0.00 0.84 0.18 84 999.3
20260505121530 11 55 6.4 9.7 0.00 0.84 0.18 85 999.3
20260505120535 11 64 4.8 8.0 0.00 0.84 0.18 86 1000.3
20260505115519 10 84 4.8 8.0 0.00 0.84 0.18 87 1000.2
20260505114523 10 87 4.8 8.0 0.00 0.84 0.18 88 1000.2
20260505113520 10 88 6.4 9.7 0.00 0.84 0.18 88 1000.3
20260505112518 10 42 4.8 8.0 0.18 0.84 0.18 88 1000.3
20260505111515 9 102 4.8 6.4 0.18 0.84 0.18 90 999.9
20260505110519 8 86 4.8 9.7 0.18 0.84 0.18 91 999.8
20260505101519 5 123 3.2 6.4 0.00 0.66 0.00 97 999.9
20260505100603 3 72 3.2 4.8 0.00 0.66 0.00 96 1000.0
20260505095527 3 0.0 0.0 0.00 0.66 0.00 96 1000.0
20260505094530 3 69 0.0 3.2 0.00 0.66 0.00 96 1000.3
20260505093516 3 0.0 0.0 0.00 0.66 0.00 96 1000.4
20260505092519 3 113 1.6 4.8 0.00 0.66 0.00 96 1000.4
20260505091523 3 109 1.6 4.8 0.00 0.66 0.00 96 1000.4
20260505090547 3 121 1.6 3.2 0.00 0.66 0.00 96 1000.4
20260505085530 3 7 3.2 4.8 0.00 0.66 0.00 95 1000.6
20260505084536 3 0.0 0.0 0.00 0.66 0.00 95 1000.6
20260505083520 3 0.0 0.0 0.00 0.66 0.00 95 1000.6
20260505082523 3 0.0 0.0 0.00 0.66 0.00 95 1000.6
20260505081527 3 308 1.6 3.2 0.00 0.66 0.00 95 1000.7
20260505080530 4 0.0 0.0 0.00 0.66 0.00 95 1001.0
20260505075516 4 189 1.6 3.2 0.00 0.66 0.00 94 1001.2
20260505074519 4 45 1.6 3.2 0.00 0.66 0.00 94 1001.0
20260505073523 4 0.0 0.0 0.00 0.66 0.00 94 1000.9
20260505072521 5 0.0 0.0 0.00 0.66 0.00 94 1000.8
20260505071519 4 72 1.6 4.8 0.00 0.66 0.00 93 1001.0
20260505070516 5 0.0 0.0 0.00 0.66 0.00 93 1001.1
20260505065540 5 0.0 0.0 0.00 0.66 0.00 93 1001.1
20260505064524 5 0.0 0.0 0.00 0.66 0.00 93 1001.3
20260505063527 5 0.0 0.0 0.00 0.66 0.00 93 1001.4
20260505062531 5 129 3.2 6.4 0.00 0.66 0.00 92 1001.5
20260505061516 5 103 1.6 4.8 0.00 0.66 0.00 92 1001.4
20260505060540 6 120 3.2 6.4 0.00 0.66 0.00 92 1001.9
20260505055544 5 0.0 0.0 0.00 0.66 0.00 91 1002.0
20260505054527 6 0.0 0.0 0.00 0.66 0.00 91 1002.0
20260505053531 6 0.0 0.0 0.00 0.66 0.00 91 1002.1
20260505052537 6 122 1.6 3.2 0.00 0.66 0.00 90 1002.2
20260505051521 6 104 1.6 4.8 0.00 0.66 0.00 90 1002.2
20260505050544 7 101 0.0 3.2 0.00 0.66 0.00 90 1002.4
20260505041524 7 88 4.8 6.4 0.00 0.66 0.00 89 1002.8
20260505040528 7 105 4.8 6.4 0.00 0.66 0.00 89 1002.8
20260505035532 6 93 3.2 4.8 0.00 0.66 0.00 89 1002.9
20260505034517 6 87 0.0 3.2 0.00 0.66 0.00 89 1003.1
20260505033521 6 73 3.2 3.2 0.00 0.66 0.00 89 1003.1
20260505032525 6 0.0 0.0 0.00 0.66 0.00 88 1003.1
20260505031522 6 105 1.6 3.2 0.00 0.66 0.00 88 1003.1
20260505030540 6 65 1.6 6.4 0.00 0.66 0.00 88 1003.0
20260505025518 6 94 0.0 3.2 0.00 0.66 0.00 88 1003.4
20260505024515 6 0.0 0.0 0.00 0.66 0.00 88 1003.4
20260505023525 6 0.0 0.0 0.00 0.66 0.00 87 1003.6
20260505022528 6 0.0 0.0 0.00 0.66 0.00 87 1003.7
20260505021532 6 113 0.0 3.2 0.00 0.66 0.00 87 1003.5
20260505020518 6 56 0.0 3.2 0.00 0.66 0.00 86 1003.7
20260505015521 5 0.0 0.0 0.00 0.66 0.00 85 1003.3
20260505014525 6 0.0 0.0 0.00 0.66 0.00 85 1003.3
20260505013549 6 0.0 0.0 0.00 0.66 0.00 84 1003.6
20260505012552 6 0.0 0.0 0.00 0.66 0.00 83 1004.0
20260505011518 6 0.0 0.0 0.00 0.66 0.00 82 1004.0
20260505010522 6 0.0 0.0 0.00 0.66 0.00 82 1004.0
20260505005525 6 0.0 0.0 0.00 0.66 0.00 81 1003.9
20260505004529 6 0.0 0.0 0.00 0.66 0.00 78 1003.4
20260505003533 7 0.0 0.0 0.00 0.66 0.00 77 1003.3
20260505002518 7 0.0 0.0 0.00 0.66 0.00 77 1003.3
20260505001522 8 0.0 0.0 0.00 0.66 0.00 75 1003.7
20260505000525 8 0.0 0.0 0.00 0.66 0.00 75 1003.5
20260504235529 10 0.0 0.0 0.00 0.66 0.00 73 1003.6
20260504234515 10 0.0 0.0 0.00 0.66 0.00 72 1003.1
20260504233518 11 264 3.2 3.2 0.00 0.66 0.00 71 1003.1
20260504232522 11 284 4.8 6.4 0.00 0.66 0.00 71 1003.1
20260504231526 11 271 4.8 6.4 0.00 0.66 0.00 71 1003.3
20260504230523 11 268 6.4 8.0 0.00 0.66 0.00 70 1002.7
20260504225515 11 258 6.4 9.7 0.00 0.66 0.66 70 1003.2
20260504224518 12 265 6.4 9.7 0.00 0.66 0.66 70 1003.0
20260504223556 12 273 6.4 8.0 0.00 0.66 0.66 70 1003.1
20260504222546 12 263 4.8 9.7 0.00 0.66 0.66 70 1003.1
20260504221529 12 271 6.4 8.0 0.00 0.66 0.66 70 1003.1
20260504220515 12 217 8.0 11.3 0.00 0.66 0.66 71 1002.8
20260504215519 12 218 8.0 11.3 0.00 0.66 0.66 72 1003.0
20260504214522 12 261 8.0 11.3 0.00 0.66 0.66 72 1002.8
20260504213526 12 291 6.4 11.3 0.00 0.66 0.66 72 1003.0
20260504212530 12 271 6.4 8.0 0.00 0.66 0.66 73 1003.1